Flag for Germany Weather past 2 weeks in Düren, North Rhine-Westphalia, Germany

Now
57 °F

Partly cloudy.


Feels Like: 57 °F
Forecast: 46 / 68 °F
Wind: 1 mph from Southwest

Location: Noervenich

Current Time: Sep 2, 2014 at 12:06:58 AM

Latest Report: Sep 1, 2014 at 11:20 PM


Visibility: N/A

Pressure: 30.15 "Hg

Humidity: 88%

Dew point: 54 °F

Location of DürenLocation

Historic Weather in Düren — Graph

°F

Düren temperature yesterday

Maximum temperature yesterday: 66 °F (at 5:20 PM)
Minimum temperature yesterday: 54 °F (at 12:20 AM)
Average temperature yesterday: 58 °F

Past Weeks' High & Low Weather Summary

 TemperatureHumidityPressure
High72 °F (Aug 28, 12:20 PM)100% (Aug 20, 9:20 PM)30.15 "Hg (Aug 20, 9:20 PM)
Low45 °F (Aug 20, 6:20 AM)40% (Aug 21, 3:20 PM)29.62 "Hg (Aug 26, 4:20 AM)
Average58 °F80%29.95 "Hg
* Reported Aug 17 10:20 PM — Sep 1 10:20 PM, Düren, Weather by CustomWeather, © 2014

Note: Actual official high and low records may vary slightly from our data, if they occured in-between our weather recording intervals... More about our weather records

Advertising

Düren weather history for previous 24 hours

 ConditionsComfort  
Time TempWeatherWind HumidityBarometerVisibility
10:20 PM
Sep 1
57 °FPartly cloudy.No wind88%30.15 "HgN/A
9:20 PM57 °FPassing clouds.No wind88%30.15 "HgN/A
8:20 PM57 °FPartly sunny.1 mph94%30.15 "HgN/A
7:20 PM63 °FPartly sunny.No wind83%30.12 "HgN/A
6:20 PM64 °FPartly sunny.1 mph68%30.12 "HgN/A
5:20 PM66 °FPartly sunny.3 mph56%30.12 "HgN/A
4:20 PM64 °FPartly sunny.5 mph64%30.15 "HgN/A
3:20 PM64 °FBroken clouds.8 mph68%30.15 "HgN/A
2:20 PM64 °FScattered clouds.3 mph64%30.15 "HgN/A
1:20 PM64 °FScattered clouds.6 mph73%30.15 "HgN/A
12:20 PM63 °FScattered clouds.3 mph73%30.15 "HgN/A
11:20 AM61 °FPassing clouds.6 mph77%30.15 "HgN/A
10:50 AM59 °FScattered clouds.6 mph82%30.15 "HgN/A
10:20 AM59 °FPartly sunny.6 mph82%30.15 "HgN/A
9:20 AM57 °FPartly sunny.3 mph88%30.12 "Hg4 mi
8:50 AM55 °FFog.6 mph94%30.12 "Hg3 mi
8:20 AM55 °FFog.5 mph94%30.12 "Hg2 mi
7:20 AM54 °FFog.2 mph100%30.12 "Hg2 mi
6:50 AM54 °FFog.3 mph100%30.12 "Hg3 mi
6:20 AM54 °FPassing clouds.3 mph100%30.12 "Hg4 mi
5:20 AM54 °FPartly cloudy.3 mph100%30.12 "Hg4 mi
4:20 AM55 °FPassing clouds.5 mph94%30.09 "Hg5 mi
3:20 AM54 °FPassing clouds.6 mph100%30.09 "HgN/A
2:20 AM54 °FPassing clouds.6 mph94%30.09 "HgN/A
1:20 AM54 °FPassing clouds.7 mph100%30.09 "HgN/A
12:20 AM54 °FPassing clouds.7 mph94%30.07 "HgN/A
Weather by CustomWeather, © 2014

See weather overviewHow to use our weather pages